Back to catalog

STARLINK-35069

AliveCommunicationsVLEO
NORAD 66268·PAYLOAD·🇺🇸 United States

Launched Oct 31, 2025 from Vandenberg Space Force Base

Loading…

Next Passes (next 24 hours)

TLE

FreshSource: CelesTrak SupGP

Epoch: Sep 14, 2026, 15:34 UTC

1 66268C 25247D   26257.64909722 -.00056971  00000+0 -16836-2 0  2571
2 66268  53.1607  30.7862 0001278  73.7809  10.1762 15.34411619    13

Track STARLINK-35069 in real time with AllMySat

Download on the App Store